Probability
0 0 0 0 0 0 0 0 0 1 2 5 8 11 15 16 13 12 13 15 17 18 17 16 13 8 4 2 3 5 8 8 8 8 9 11 10 10 10 11 11 11 9 8
0 0 0 1 0 0 0 0 0 1 3 8 12 15 17 16 14 15 15 15 15 15 16 15 11 7 5 4 4 7 9 9 8 9 10 11 10 8 8 9 11 11 9 7
0 0 1 2 1 0 1 1 1 2 5 10 15 18 17 16 17 19 17 16 14 13 14 13 8 6 5 4 5 7 8 8 8 9 10 10 8 7 7 7 9 10 9 7
0 0 1 2 1 1 3 4 6 6 8 13 18 19 19 19 22 23 20 18 16 14 13 10 7 6 6 5 5 5 6 7 9 9 9 9 7 6 6 5 7 9 9 8
0 0 0 1 2 3 5 8 9 11 14 18 20 20 21 22 23 22 19 17 15 13 10 9 9 9 9 8 7 6 8 10 10 10 10 8 7 5 5 5 7 9 10 10
0 0 1 2 3 4 6 8 9 14 18 19 19 21 22 20 18 16 14 11 9 8 7 8 11 13 13 12 11 10 11 11 12 12 11 9 7 6 6 7 8 10 10 11
1 1 2 3 4 8 11 13 13 16 19 19 21 24 22 18 14 12 10 7 5 5 5 6 10 13 13 13 12 12 11 10 11 11 11 10 10 10 9 9 9 10 12 12
3 3 2 5 10 16 19 19 19 19 19 21 24 23 19 16 14 12 10 7 4 4 5 7 9 10 11 11 11 11 9 9 9 10 10 10 12 12 11 10 9 10 11 12
6 4 2 6 14 19 20 21 22 22 21 21 19 14 11 11 10 10 9 7 5 5 6 8 9 10 10 10 10 9 9 9 9 9 9 10 12 13 11 9 8 8 10 12
5 3 2 5 10 14 17 19 22 22 19 15 11 6 4 4 4 6 7 7 7 7 7 7 9 9 10 10 10 10 10 10 9 8 8 9 10 10 9 8 7 8 11 13
5 3 3 4 7 11 16 20 21 18 12 8 5 2 1 1 1 2 5 7 8 8 7 7 7 8 9 9 9 10 12 12 10 8 8 9 9 8 6 6 6 7 9 11
6 5 4 6 9 13 16 17 15 11 6 3 1 0 0 0 0 1 3 6 6 6 6 6 6 7 7 8 9 11 13 13 12 10 9 8 8 6 4 2 3 3 4 4
6 6 6 7 9 10 10 9 7 5 3 2 1 1 1 1 1 1 3 4 4 4 3 4 4 4 5 7 8 10 11 13 12 10 9 8 7 6 4 2 1 0 0 0
6 6 6 5 4 4 3 3 2 2 2 2 2 2 1 1 1 2 2 2 2 2 1 1 2 2 3 5 6 7 8 9 8 8 7 6 6 5 4 3 2 1 0 0
3 3 3 2 1 0 0 0 0 1 1 1 1 1 1 1 1 1 1 1 1 1 0 0 0 0 1 2 3 4 4 4 4 4 5 4 4 4 4 4 4 2 1 0
1 1 1 0 0 0 0 0 0 0 0 0 0 0 0 0 0 0 0 0 0 0 0 0 0 0 0 1 1 2 2 1 1 2 2 2 2 3 3 3 3 2 1 0
0 0 0 0 0 0 0 0 0 0 0 0 0 0 0 0 0 0 0 0 0 0 0 0 0 0 0 0 0 1 1 0 0 1 1 1 1 1 3 3 2 1 0 0
0 0 0 0 0 0 0 0 0 0 0 0 0 0 0 0 0 0 0 0 0 0 0 0 0 0 0 0 0 0 0 0 0 0 0 0 0 1 2 2 1 0 0 0
0 0 0 0 0 0 0 0 0 0 0 0 0 0 0 0 0 0 0 0 0 0 0 0 0 0 0 0 0 0 0 0 0 0 0 0 0 0 1 1 0 0 0 0
0 0 0 0 0 0 0 0 0 0 0 0 0 0 0 0 0 0 0 0 0 0 0 0 0 0 0 0 0 0 0 0 0 0 0 0 0 0 0 0 0 0 0 0
0 0 0 0 0 0 0 0 0 0 0 0 0 0 0 0 0 0 0 0 0 0 0 0 0 0 0 0 0 0 0 0 0 0 0 0 0 0 0 0 0 0 0 0
0 0 0 0 0 0 0 0 0 0 0 0 0 0 0 0 0 0 0 0 0 0 0 0 0 0 0 0 0 0 0 0 0 0 0 0 0 0 0 0 0 0 0 0
0 0 0 0 0 0 0 0 0 0 0 0 0 0 0 0 0 0 0 0 0 0 0 0 0 0 0 0 0 0 0 0 0 0 0 0 0 0 0 0 0 0 0 0
0 0 0 0 0 0 0 0 0 0 0 0 0 0 0 0 0 0 0 0 0 0 0 0 0 0 0 0 0 0 0 0 0 0 0 0 0 0 0 0 0 0 0 0
0 0 0 0 0 0 0 0 0 0 0 0 0 0 0 0 0 0 0 0 0 0 0 0 0 0 0 0 0 0 0 0 0 0 0 0 0 0 0 0 0 0 0 0
0 0 0 0 0 0 0 0 0 0 0 0 0 0 0 0 0 0 0 0 0 0 0 0 0 0 0 0 0 0 0 0 0 0 0 0 0 0 0 0 0 0 0 0
0 0 0 0 0 0 0 0 0 0 0 0 0 0 0 0 0 0 0 0 0 0 0 0 0 0 0 0 0 0 0 0 0 0 0 0 0 0 0 0 0 0 0 0
Wind_Speed
8 7 12 13 15 16 17 14 12 9 8 8 8 8 8 8 8 8 7 6 6 5 4 4 4 4 4 4 4 5 5 6 6 6 7 8 8 9 9 10 11 10 10 11
9 9 10 11 13 14 15 14 12 8 5 6 8 8 9 8 7 7 6 5 5 4 4 4 3 3 3 4 4 4 5 5 5 6 6 7 7 8 8 9 9 9 10 10
11 12 12 11 10 12 11 10 11 10 6 10 10 9 8 7 7 6 5 5 4 3 3 3 3 3 3 3 4 5 5 5 4 4 5 6 7 7 8 8 9 9 9 9
9 12 15 4 4 7 7 6 4 5 9 10 10 10 8 6 6 6 5 4 3 3 2 2 2 2 2 3 3 4 4 4 4 4 5 5 5 6 6 6 6 6 7 8
8 12 9 7 6 7 8 6 5 8 10 12 13 12 9 7 7 6 6 4 3 3 2 2 2 2 3 3 3 3 3 3 3 4 4 4 5 5 5 5 6 6 6 6
8 11 11 7 7 5 6 7 7 9 11 13 12 8 7 6 7 7 6 5 4 4 4 3 2 2 2 2 2 2 2 2 3 3 4 4 4 4 4 5 5 5 5 5
9 8 4 5 6 8 10 6 9 9 10 10 6 6 10 8 8 7 6 6 5 5 5 3 2 2 2 2 1 0 0 1 1 2 2 3 3 3 4 4 4 4 5 5
8 9 4 4 6 4 4 7 9 9 9 10 12 14 12 10 8 7 7 7 6 6 6 5 3 2 2 2 1 0 1 1 1 1 1 2 2 2 2 3 3 3 3 3
1 2 6 4 4 4 3 7 8 9 11 13 14 13 11 10 8 8 8 7 7 7 7 6 5 4 3 2 2 1 2 2 1 1 1 1 2 2 2 2 2 3 3 3
2 4 5 5 5 5 6 8 10 11 13 13 13 12 11 9 8 8 8 7 7 7 7 7 7 6 5 4 2 1 2 2 2 2 2 2 1 1 1 1 2 2 2 3
3 4 5 5 5 7 9 10 12 13 13 12 13 12 10 9 8 8 8 8 7 7 7 7 7 7 6 5 4 4 4 3 3 3 3 3 4 5 3 4 3 1 0 1
2 4 3 5 6 8 10 12 13 14 13 12 11 11 11 9 8 8 8 8 8 8 8 8 8 8 7 6 5 4 4 3 3 3 3 4 5 7 13 10 13 12 10 6
3 5 7 7 8 9 10 12 12 13 13 12 11 11 11 10 9 9 9 9 9 8 8 8 9 9 8 7 6 6 5 4 3 4 4 4 4 5 6 7 11 13 12 10
7 8 9 8 9 10 12 13 13 13 12 12 11 11 11 10 10 10 9 9 9 9 9 9 10 10 8 8 8 7 7 7 5 5 4 4 4 4 5 5 5 6 8 10
6 7 10 10 10 11 12 13 13 12 12 12 11 11 11 11 11 10 9 8 9 10 10 10 10 9 8 8 8 8 7 6 5 5 5 5 5 6 6 6 6 6 6 7
9 11 12 12 11 11 12 13 13 13 12 12 12 11 11 11 11 10 9 9 10 11 10 9 9 8 7 7 8 7 8 10 8 7 7 7 7 7 7 6 7 7 7 6
11 11 12 12 12 12 12 12 12 12 12 12 12 11 11 11 11 10 10 9 10 10 9 9 9 8 8 7 7 6 7 8 9 7 7 7 7 7 7 7 7 7 8 8
8 9 11 12 12 13 12 12 13 12 12 12 12 11 11 11 10 10 9 9 10 10 10 9 8 8 8 8 7 6 6 6 7 7 7 7 7 7 7 7 8 8 7 8
11 11 11 12 12 13 13 13 12 12 12 11 12 11 11 10 10 9 9 9 10 10 9 8 7 8 9 8 6 6 7 7 7 7 7 7 7 7 7 7 8 8 7 7
11 11 12 13 13 13 13 13 12 11 11 11 12 12 11 10 9 9 10 10 9 7 7 7 7 8 8 8 6 6 7 7 7 7 7 7 7 7 7 7 8 8 7 7
12 13 13 13 13 13 12 12 12 12 11 11 11 11 11 9 8 8 8 9 8 7 7 6 6 7 7 6 5 7 7 7 7 6 7 7 7 7 7 7 7 7 7 6
11 12 13 13 13 12 11 11 12 12 12 11 11 11 10 10 10 10 10 8 7 5 5 7 8 8 6 4 6 7 7 7 7 6 6 6 6 6 6 6 6 6 6 6
10 11 12 12 12 13 12 12 12 11 11 11 10 10 9 8 7 7 7 6 6 7 7 8 7 6 6 4 6 6 7 7 7 7 6 6 6 6 6 6 6 6 6 5
10 11 11 12 12 13 12 12 11 10 11 10 10 9 8 7 7 7 8 7 7 6 8 7 6 6 4 5 6 6 7 7 6 6 6 6 6 6 6 6 6 6 6 6
11 11 11 12 11 10 11 11 12 11 10 9 10 9 7 7 7 7 7 8 6 5 7 6 4 4 5 7 7 7 7 7 6 6 6 6 7 7 6 6 6 5 5 5
9 9 9 9 8 8 8 8 8 7 7 7 7 7 7 6 7 6 6 7 8 5 5 5 5 4 6 7 7 7 7 6 5 6 7 6 7 7 6 6 6 5 5 5
10 9 8 8 8 7 7 7 7 7 7 7 7 6 6 6 6 6 6 5 5 5 5 5 5 5 6 6 6 7 6 6 6 6 5 6 6 6 6 6 5 5 5 5
Wind_Direction
234 204 193 199 201 206 217 228 231 214 199 168 164 153 145 143 143 141 140 141 141 142 139 147 154 162 172 179 182 190 194 202 208 210 211 211 208 208 207 208 209 208 211 214
209 205 201 203 207 207 213 223 229 214 170 125 133 134 138 142 145 145 143 142 141 142 146 155 164 172 175 181 182 190 199 202 206 212 211 210 209 207 207 209 210 207 211 214
204 198 200 206 208 208 208 216 220 215 169 143 144 140 139 138 140 137 135 131 126 132 139 154 167 175 189 187 184 190 198 198 201 212 216 215 212 206 206 206 207 208 210 211
205 196 212 183 193 208 196 195 208 160 140 148 134 122 113 115 121 118 112 109 107 112 118 136 154 168 183 176 183 190 199 202 197 207 213 213 215 212 210 208 206 209 212 212
211 205 200 168 176 190 190 172 168 150 140 132 129 124 103 86 90 90 88 85 83 84 92 98 130 161 173 179 181 184 194 207 204 209 208 205 206 207 206 207 206 206 210 211
216 214 211 169 155 190 200 177 160 155 148 149 163 167 121 102 94 89 84 80 76 74 77 79 86 131 151 163 175 183 191 207 209 209 210 209 209 212 209 207 209 206 203 206
219 218 176 102 146 187 209 158 149 155 153 159 152 88 111 111 99 89 81 75 70 66 63 51 53 101 116 108 113 191 228 222 210 212 218 212 207 208 207 203 198 202 194 196
217 222 166 107 174 193 81 105 134 142 140 121 107 108 111 106 97 88 77 68 63 63 59 48 42 68 78 55 24 66 142 125 133 175 217 193 185 194 193 184 180 192 189 195
272 56 62 61 67 65 104 125 125 125 122 122 119 116 111 104 95 84 73 63 56 58 57 48 39 40 42 24 20 76 105 107 118 122 137 151 159 167 169 172 183 188 185 189
138 103 88 82 89 95 107 115 115 118 123 124 120 117 113 106 96 84 73 65 59 57 55 49 40 38 36 28 29 68 93 96 101 101 95 103 105 115 132 159 173 179 188 193
146 126 118 99 94 107 111 115 116 114 114 116 117 115 112 104 94 83 75 65 62 61 58 52 45 43 35 33 38 57 74 77 78 81 87 80 69 45 42 44 29 46 139 161
154 149 133 115 111 116 115 117 117 116 113 112 112 111 107 100 92 85 78 71 66 62 58 53 49 45 38 34 43 55 67 72 78 82 87 91 88 79 57 58 54 51 44 46
103 118 106 110 108 110 111 111 111 112 114 112 109 107 104 99 93 87 80 73 66 60 57 53 49 44 37 35 45 56 62 65 67 73 80 86 90 96 95 77 66 58 52 56
113 117 114 111 109 111 111 108 106 106 105 106 106 106 104 99 93 85 78 73 70 64 57 54 51 44 36 44 53 58 63 67 67 69 71 78 84 85 86 86 83 76 63 58
111 115 117 113 112 113 114 115 114 111 108 107 107 106 103 97 91 84 80 77 73 67 58 53 50 44 39 49 58 59 60 61 67 74 75 74 75 77 81 81 78 79 77 69
113 115 117 117 117 120 122 121 116 112 110 108 105 102 100 97 93 86 78 72 69 63 55 52 50 46 44 54 65 68 67 63 62 71 74 73 72 73 74 78 77 73 70 66
129 127 125 121 119 117 116 115 114 112 110 107 106 106 103 99 92 85 79 73 69 64 58 54 51 50 55 57 62 73 79 80 76 75 73 72 71 72 72 71 73 73 68 51
118 120 122 124 123 119 117 115 113 112 111 111 110 106 102 96 91 86 83 81 74 65 55 51 50 55 58 58 57 64 75 77 75 75 74 71 72 75 75 75 76 78 76 72
114 116 116 118 120 121 119 116 113 112 113 111 106 101 96 93 93 90 85 80 75 68 56 54 49 61 64 59 60 77 75 77 77 77 79 81 76 72 71 72 73 71 70 69
114 115 115 117 118 118 117 115 114 112 110 109 106 102 98 95 93 89 82 71 58 59 60 52 56 58 58 52 41 73 75 76 77 77 74 74 75 74 71 69 71 71 68 66
119 119 119 119 119 117 116 117 115 113 112 110 107 104 101 96 91 88 88 82 65 53 63 65 60 57 56 49 54 67 68 68 69 72 73 73 72 70 70 69 68 68 67 66
119 121 121 121 120 118 115 114 113 112 111 110 108 106 105 102 96 86 73 71 70 34 53 62 59 43 27 29 67 67 66 66 67 68 69 70 71 71 71 71 71 70 69 66
117 119 120 120 119 116 115 113 112 111 109 106 104 102 95 88 87 89 85 70 67 51 58 59 37 10 348 61 73 74 72 71 71 72 73 73 73 72 72 71 68 64 62 60
117 118 119 120 119 117 115 112 110 108 106 103 100 98 100 99 92 85 87 81 62 62 70 59 26 5 2 72 73 72 71 70 70 70 71 73 72 69 65 63 61 59 59 56
120 121 122 125 122 118 117 118 116 114 111 104 100 95 86 81 85 86 88 89 87 84 89 82 45 10 54 67 69 69 67 60 57 61 67 67 69 69 66 64 60 57 54 51
118 117 115 112 112 119 123 122 116 113 111 107 100 95 93 93 95 96 95 93 87 80 80 82 76 69 68 69 69 69 75 80 73 66 66 67 69 69 65 62 62 55 53 52
113 111 113 111 111 113 114 113 111 110 108 107 103 97 95 94 93 94 94 93 91 85 79 75 71 68 69 70 72 69 68 67 65 62 66 69 69 68 68 63 57 53 50 53